Location: *
(45.4590°N, 16.3650°E)
Time: 09:25:21
(UTC+00:00)

Alouette 2 Rocket - Pass Details

Date: 17 January 2020
Orbit: 502 x 2650 km, 79.8° (Epoch: 16 February)

Event Time Altitude Azimuth Distance (km) Brightness Sun altitude
Rises 16:48:14 0° 347° (NNW) 2,831 6.9 -11.9°
Reaches altitude 10° 16:50:06 10° 348° (NNW) 2,048 6.2 -12.2°
Maximum altitude 16:54:32 86° 76° (ENE) 823 4.1 -12.9°
Drops below altitude 10° 17:01:14 10° 168° (SSE) 3,051 7.1 -14.1°
Sets 17:04:33 0° 169° (SSE) 4,351 7.9 -14.6°
